STARLINK-2224 (48573 NORAD) Tracking and Keplerian Element Data

This shows tracking and keplerian element data for the satellite.

Feedback or suggestion? Click here.




ElementValue
Catalog48573
NameSTARLINK-2224
Epoch Orbit1198
Epoch Day214.69759667
Epoch Year2021
RAAN113.4567
Inclination53.0435
Eccentricity0.0002186
Argument of Perigee82.7999
Mean Anonmoly277.3238
Mean Motion15.06386874
Decay Rate-7.03E-06
L11 48573U 21041W 21214.69759667 -.00000703 00000-0 -28321-4 0 9992
L22 48573 53.0435 113.4567 0002186 82.7999 277.3238 15.06386874 11986

Live tracking and technical data element details for STARLINK-2224 (NORAD 48573). STARLINK-2224 can be tracked NOW for your location showing map with azimuth and elevation plus other details from your city location.

Track the satellite on the map from your city or location and see movement details for azimuth, elevation, latitude, longitude, range, height, and movement on the map or in text.







IsCatalogInMostPopularTable: catalog: 48573, numindb: 23
Update: records affected: 1



GetName: 48573 STARLINK-2224

Hit Count: updated at: Tue, 03 Aug 2021 23:45:19 GMT